Location: Banios
(43.0451°N, 0.2335°E)
Time: 12:02:33
(UTC+00:00)

Envisat - Pass Details

Date: 12 December 2021
Orbit: 764 x 766 km, 98.2° (Epoch: 20 January)

Event Time Altitude Azimuth Distance (km) Brightness Sun altitude
Rises 16:49:47 0° 191° (S) 3,218 6.8 -4.9°
Reaches altitude 10° 16:52:18 10° 200° (SSW) 2,297 6.3 -5.3°
Maximum altitude 16:56:49 33° 264° (W) 1,280 5.0 -6.0°
Drops below altitude 10° 17:01:23 10° 328° (NNW) 2,312 5.6 -6.8°
Sets 17:03:56 0° 338° (NNW) 3,243 6.2 -7.2°
